• In Kazakhstan
  • List of Countries
  • For 7 days
  • Water Temperature
  • Weather Map
  • News
  • Weather Widgets
  • user-avatar
    Login

    Hourly Weather Ioannina

    Today, 19 January, Sunday

    Time Temperature Precipitation Wind Pressure Humidity
    00:00 +1°C° 0 mm 0 mps 688 mmHg 85%
    01:00 +2°C° 0 mm 1 mps 688 mmHg 86%
    02:00 +2°C° 0 mm 1 mps 687 mmHg 86%
    03:00 +1°C° 0 mm 1 mps 687 mmHg 87%
    04:00 +1°C° 0 mm 1 mps 687 mmHg 87%
    05:00 +1°C° 0 mm 1 mps 687 mmHg 86%
    06:00 +1°C° 0 mm 1 mps 687 mmHg 84%
    07:00 +1°C° 0 mm 1 mps 688 mmHg 82%
    08:00 +3°C° 0 mm 1 mps 688 mmHg 76%
    09:00 +4°C° 0 mm 1 mps 688 mmHg 70%
    10:00 +5°C° 0 mm 0 mps 689 mmHg 64%
    11:00 +6°C° 0 mm 0 mps 689 mmHg 62%
    12:00 +8°C° 0 mm 1 mps 689 mmHg 59%
    13:00 +9°C° 0 mm 1 mps 689 mmHg 57%
    14:00 +8°C° 0 mm 1 mps 689 mmHg 63%
    15:00 +6°C° 0 mm 0 mps 689 mmHg 68%
    16:00 +6°C° 0 mm 0 mps 690 mmHg 73%
    17:00 +5°C° 0 mm 1 mps 690 mmHg 78%
    18:00 +4°C° 0 mm 1 mps 690 mmHg 82%
    19:00 +3°C° 0 mm 1 mps 690 mmHg 87%
    20:00 +3°C° 0 mm 1 mps 691 mmHg 87%
    21:00 +2°C° 0 mm 1 mps 691 mmHg 87%
    22:00 +2°C° 0 mm 1 mps 692 mmHg 87%
    23:00 +2°C° 0 mm 1 mps 692 mmHg 86%

    Tomorrow, 20 January, Monday

    Time Temperature Precipitation Wind Pressure Humidity
    00:00 +1°C° 0 mm 1 mps 692 mmHg 86%
    01:00 +1°C° 0 mm 1 mps 693 mmHg 86%
    02:00 +1°C° 0 mm 1 mps 693 mmHg 85%
    03:00 -1°C° 0 mm 2 mps 693 mmHg 85%
    04:00 -1°C° 0 mm 2 mps 693 mmHg 85%
    05:00 -1°C° 0 mm 2 mps 694 mmHg 84%
    06:00 -2°C° 0 mm 2 mps 694 mmHg 84%
    07:00 -2°C° 0 mm 2 mps 695 mmHg 84%
    08:00 +2°C° 0 mm 1 mps 695 mmHg 77%
    09:00 +4°C° 0 mm 1 mps 696 mmHg 69%
    10:00 +5°C° 0 mm 1 mps 697 mmHg 62%
    11:00 +7°C° 0 mm 1 mps 697 mmHg 59%
    12:00 +8°C° 0 mm 1 mps 698 mmHg 56%
    13:00 +9°C° 0 mm 1 mps 698 mmHg 53%
    14:00 +8°C° 0 mm 1 mps 698 mmHg 57%
    15:00 +7°C° 0 mm 1 mps 698 mmHg 62%
    16:00 +6°C° 0 mm 1 mps 698 mmHg 67%
    17:00 +5°C° 0 mm 1 mps 698 mmHg 71%
    18:00 +3°C° 0 mm 1 mps 698 mmHg 75%
    19:00 +1°C° 0 mm 2 mps 698 mmHg 79%
    20:00 +1°C° 0 mm 2 mps 698 mmHg 79%
    21:00 -1°C° 0 mm 2 mps 699 mmHg 79%
    22:00 -1°C° 0 mm 2 mps 699 mmHg 79%
    23:00 -1°C° 0 mm 2 mps 699 mmHg 78%

    Day after tomorrow, 21 January, Tuesday

    Time Temperature Precipitation Wind Pressure Humidity
    00:00 -2°C° 0 mm 2 mps 699 mmHg 76%
    01:00 -2°C° 0 mm 2 mps 699 mmHg 75%
    02:00 -2°C° 0 mm 2 mps 699 mmHg 73%
    03:00 -2°C° 0 mm 2 mps 699 mmHg 72%
    04:00 -2°C° 0 mm 2 mps 699 mmHg 70%
    05:00 -2°C° 0 mm 2 mps 699 mmHg 66%
    06:00 -3°C° 0 mm 2 mps 699 mmHg 62%
    07:00 -3°C° 0 mm 2 mps 699 mmHg 58%
    08:00 +2°C° 0 mm 1 mps 699 mmHg 49%
    09:00 +4°C° 0 mm 1 mps 700 mmHg 40%
    10:00 +7°C° 0 mm 1 mps 701 mmHg 31%
    11:00 +8°C° 0 mm 1 mps 700 mmHg 30%
    12:00 +9°C° 0 mm 1 mps 700 mmHg 29%
    13:00 +10°C° 0 mm 1 mps 700 mmHg 28%
    14:00 +9°C° 0 mm 1 mps 700 mmHg 34%
    15:00 +7°C° 0 mm 1 mps 699 mmHg 40%
    16:00 +5°C° 0 mm 0 mps 698 mmHg 47%
    17:00 +5°C° 0 mm 1 mps 698 mmHg 47%
    18:00 +3°C° 0 mm 1 mps 698 mmHg 46%
    19:00 +2°C° 0 mm 1 mps 697 mmHg 46%
    20:00 +1°C° 0 mm 1 mps 697 mmHg 43%
    21:00 +1°C° 0 mm 1 mps 697 mmHg 39%
    22:00 +1°C° 0 mm 1 mps 697 mmHg 36%
    23:00 +1°C° 0 mm 1 mps 696 mmHg 34%

    22 January, Wednesday

    Time Temperature Precipitation Wind Pressure Humidity
    00:00 +1°C° 0 mm 1 mps 696 mmHg 32%
    01:00 +1°C° 0 mm 1 mps 696 mmHg 30%
    02:00 +1°C° 0 mm 1 mps 696 mmHg 29%
    03:00 +1°C° 0 mm 1 mps 695 mmHg 28%
    04:00 +1°C° 0 mm 1 mps 695 mmHg 27%
    05:00 +1°C° 0 mm 1 mps 695 mmHg 26%
    06:00 +1°C° 0 mm 1 mps 695 mmHg 25%
    07:00 +1°C° 0 mm 1 mps 695 mmHg 25%
    08:00 +4°C° 0 mm 1 mps 695 mmHg 24%
    09:00 +5°C° 0 mm 0 mps 696 mmHg 24%
    10:00 +8°C° 0 mm 0 mps 696 mmHg 23%
    11:00 +9°C° 0 mm 0 mps 696 mmHg 24%
    12:00 +10°C° 0 mm 1 mps 696 mmHg 26%
    13:00 +11°C° 0 mm 1 mps 695 mmHg 27%
    14:00 +10°C° 0 mm 1 mps 694 mmHg 34%
    15:00 +7°C° 0 mm 0 mps 694 mmHg 42%
    16:00 +6°C° 0 mm 0 mps 693 mmHg 49%
    17:00 +4°C° 0 mm 0 mps 693 mmHg 50%
    18:00 +3°C° 0 mm 0 mps 692 mmHg 51%
    19:00 +3°C° 0 mm 1 mps 692 mmHg 52%
    20:00 +2°C° 0 mm 1 mps 692 mmHg 49%
    21:00 +2°C° 0 mm 1 mps 691 mmHg 47%
    22:00 +2°C° 0 mm 1 mps 691 mmHg 45%
    23:00 +2°C° 0 mm 1 mps 691 mmHg 44%

    23 January, Thursday

    Time Temperature Precipitation Wind Pressure Humidity
    00:00 +2°C° 0 mm 1 mps 691 mmHg 44%
    01:00 +2°C° 0 mm 1 mps 691 mmHg 43%
    02:00 +2°C° 0 mm 1 mps 691 mmHg 41%
    03:00 +2°C° 0 mm 1 mps 690 mmHg 40%
    04:00 +2°C° 0 mm 1 mps 690 mmHg 38%
    05:00 +2°C° 0 mm 1 mps 690 mmHg 36%
    06:00 +2°C° 0 mm 1 mps 690 mmHg 34%
    07:00 +2°C° 0 mm 1 mps 690 mmHg 32%
    08:00 +5°C° 0 mm 1 mps 691 mmHg 30%
    09:00 +7°C° 0 mm 1 mps 691 mmHg 29%
    10:00 +10°C° 0 mm 1 mps 692 mmHg 28%
    11:00 +11°C° 0 mm 1 mps 692 mmHg 29%
    12:00 +12°C° 0 mm 1 mps 692 mmHg 30%
    13:00 +13°C° 0 mm 1 mps 692 mmHg 30%
    14:00 +11°C° 0 mm 1 mps 692 mmHg 37%
    15:00 +10°C° 0 mm 1 mps 692 mmHg 44%
    16:00 +9°C° 0 mm 1 mps 692 mmHg 51%
    17:00 +7°C° 0 mm 1 mps 692 mmHg 53%
    18:00 +6°C° 0 mm 1 mps 692 mmHg 56%
    19:00 +3°C° 0 mm 2 mps 692 mmHg 58%
    20:00 +3°C° 0 mm 2 mps 692 mmHg 60%
    21:00 +2°C° 0 mm 2 mps 693 mmHg 63%
    22:00 +2°C° 0 mm 2 mps 693 mmHg 65%
    23:00 +1°C° 0 mm 2 mps 693 mmHg 69%

    24 January, Friday

    Time Temperature Precipitation Wind Pressure Humidity
    00:00 +1°C° 0 mm 2 mps 693 mmHg 72%
    01:00 -1°C° 0 mm 2 mps 693 mmHg 76%
    02:00 -1°C° 0 mm 2 mps 693 mmHg 77%
    03:00 -1°C° 0 mm 2 mps 694 mmHg 79%
    04:00 -1°C° 0 mm 2 mps 694 mmHg 81%
    05:00 +1°C° 0 mm 1 mps 694 mmHg 80%
    06:00 +1°C° 0 mm 1 mps 694 mmHg 79%
    07:00 +1°C° 0 mm 1 mps 694 mmHg 78%
    08:00 +3°C° 0 mm 1 mps 695 mmHg 68%
    09:00 +6°C° 0 mm 1 mps 696 mmHg 59%
    10:00 +8°C° 0 mm 1 mps 696 mmHg 50%
    11:00 +9°C° 0 mm 1 mps 696 mmHg 50%
    12:00 +9°C° 0 mm 1 mps 696 mmHg 51%
    13:00 +10°C° 0 mm 1 mps 696 mmHg 51%
    14:00 +9°C° 0 mm 1 mps 696 mmHg 57%
    15:00 +8°C° 0 mm 1 mps 695 mmHg 63%
    16:00 +7°C° 0 mm 1 mps 695 mmHg 70%
    17:00 +6°C° 0 mm 1 mps 695 mmHg 76%
    18:00 +4°C° 0 mm 0 mps 694 mmHg 82%
    19:00 +2°C° 0 mm 0 mps 694 mmHg 88%
    20:00 +2°C° 0 mm 0 mps 694 mmHg 89%
    21:00 +2°C° 0 mm 0 mps 694 mmHg 89%
    22:00 +2°C° 0 mm 0 mps 694 mmHg 90%
    23:00 +3°C° 0 mm 1 mps 694 mmHg 90%
    Show more